Flag for Canada Weather past 2 weeks in Hopedale, Newfoundland and Labrador, Canada

Now
36 °F

Chilly.


Feels Like: 28 °F
Forecast: 37 / 47 °F
Wind: 10 mph from West

Location: Hopedale

Current Time: Sep 20, 2014 at 5:43:44 AM

Latest Report: Sep 20, 2014 at 5:00 AM


Visibility: N/A

Pressure: 29.78 "Hg

Humidity: 80%

Dew point: 30 °F

Location of HopedaleLocation

Historic Weather in Hopedale — Graph

°F

Hopedale temperature yesterday

Maximum temperature yesterday: 45 °F (at 7:00 PM)
Minimum temperature yesterday: 35 °F (at 3:00 AM)
Average temperature yesterday: 40 °F

Past Weeks' High & Low Weather Summary

 TemperatureHumidityPressure
High74 °F (Sep 9, 5:00 PM)100% (Sep 6, 10:00 AM)30.25 "Hg (Sep 6, 10:00 AM)
Low35 °F (Sep 19, 3:00 AM)35% (Sep 18, 5:00 PM)29.21 "Hg (Sep 6, 1:00 PM)
Average47 °F74%29.80 "Hg
* Reported Sep 5 4:00 AM — Sep 20 4:00 AM, Hopedale, Weather by CustomWeather, © 2014

Note: Actual official high and low records may vary slightly from our data, if they occured in-between our weather recording intervals... More about our weather records

Advertising

Hopedale weather history for previous 24 hours

 ConditionsComfort  
Time TempWeatherWind HumidityBarometerVisibility
4:00 AM
Sep 20
37 °FChilly.6 mph77%29.80 "HgN/A
3:00 AM38 °FChilly.12 mph72%29.81 "HgN/A
2:00 AM39 °FChilly.12 mph70%29.82 "HgN/A
1:00 AM39 °FChilly.14 mph67%29.82 "HgN/A
12:00 AM40 °FChilly.16 mph72%29.83 "HgN/A
11:00 PM
Sep 19
41 °FQuite cool.17 mph66%29.84 "HgN/A
10:00 PM42 °FQuite cool.14 mph65%29.83 "HgN/A
9:00 PM43 °FQuite cool.14 mph63%29.84 "HgN/A
8:00 PM44 °FQuite cool.14 mph71%29.83 "HgN/A
7:00 PM45 °FQuite cool.7 mph72%29.82 "HgN/A
6:00 PM44 °FQuite cool.3 mph82%29.82 "HgN/A
5:00 PM42 °FQuite cool.6 mph85%29.82 "HgN/A
4:00 PM42 °FQuite cool.10 mph85%29.82 "HgN/A
3:00 PM40 °FQuite cool.16 mph89%29.81 "HgN/A
2:00 PM39 °FChilly.20 mph91%29.79 "HgN/A
1:00 PM39 °FChilly.17 mph91%29.77 "HgN/A
12:00 PM40 °FChilly.14 mph85%29.76 "HgN/A
11:00 AM41 °FQuite cool.15 mph77%29.75 "HgN/A
10:00 AM40 °FChilly.8 mph84%29.75 "HgN/A
9:00 AM38 °FChilly.9 mph89%29.75 "HgN/A
8:00 AM37 °FChilly.10 mph88%29.76 "HgN/A
7:00 AM36 °FChilly.10 mph89%29.76 "HgN/A
6:00 AM36 °FChilly.13 mph83%29.77 "HgN/A
5:00 AM36 °FChilly.10 mph69%29.78 "HgN/A
Weather by CustomWeather, © 2014

See weather overviewHow to use our weather pages